HELLAS-SAT 2

Last updated on Thu Nov 06 2025 00:02:45 GMT+0000 (Coordinated Universal Time)

1 27811U 03020A 25309.10463495 -.00000070 00000+0 00000+0 0 9991 2 27811 6.7943 70.5499 0010689 167.4230 194.3308 1.00271145 40600
UTC large
Height (km)
Speed (km/s)
/
Latitude / Longitude
Inclination (degrees)
Orbital Period (minutes)
Azimuth
Elevation
Range (km)
Doppler Factor

Next 0 passes for location: London (51.5072 / 0.1276)

Sorry there are no passes over London.